When you browse on this site, cookies collect data to enhance your experience and personalize the content and advertising you see.
Visit our Privacy Policy to learn more. By continuing to use the site, you agree to this use of cookies and data.
  • In Schweiz
  • Länderverzeichnis
  • Für 7 Tage
  • Wassertemperatur
  • Wetterkarte
  • Widgets
  • user-avatar
    Anmelden

    Stündliche Wetter Kriens

    Heute, 21 August, Mittwoch

    Zeit Temperatur Niederschläge Wind Luftdruck Luftfeuchtigkeit
    00:00 +13°C° 0.1 mm 1 m/S 717 mmHg 97%
    01:00 +13°C° 0 mm 1 m/S 717 mmHg 97%
    02:00 +12°C° 0 mm 1 m/S 717 mmHg 97%
    03:00 +12°C° 0 mm 1 m/S 717 mmHg 97%
    04:00 +12°C° 0 mm 1 m/S 716 mmHg 97%
    05:00 +12°C° 0 mm 1 m/S 717 mmHg 96%
    06:00 +13°C° 0 mm 1 m/S 717 mmHg 96%
    07:00 +13°C° 0 mm 1 m/S 717 mmHg 95%
    08:00 +14°C° 0 mm 1 m/S 717 mmHg 90%
    09:00 +16°C° 0 mm 2 m/S 717 mmHg 85%
    10:00 +17°C° 0 mm 2 m/S 716 mmHg 81%
    11:00 +18°C° 0 mm 2 m/S 716 mmHg 76%
    12:00 +19°C° 0 mm 2 m/S 716 mmHg 72%
    13:00 +21°C° 0 mm 3 m/S 716 mmHg 68%
    14:00 +21°C° 0.1 mm 3 m/S 716 mmHg 69%
    15:00 +21°C° 0.1 mm 3 m/S 716 mmHg 69%
    16:00 +21°C° 0.1 mm 3 m/S 716 mmHg 70%
    17:00 +20°C° 0.1 mm 3 m/S 716 mmHg 75%
    18:00 +19°C° 0.1 mm 2 m/S 716 mmHg 80%
    19:00 +18°C° 0.1 mm 2 m/S 716 mmHg 85%
    20:00 +17°C° 0 mm 2 m/S 716 mmHg 88%
    21:00 +16°C° 0 mm 1 m/S 716 mmHg 90%
    22:00 +15°C° 0 mm 1 m/S 716 mmHg 92%
    23:00 +15°C° 0 mm 1 m/S 716 mmHg 92%

    Morgen, 22 August, Donnerstag

    Zeit Temperatur Niederschläge Wind Luftdruck Luftfeuchtigkeit
    00:00 +14°C° 0 mm 1 m/S 716 mmHg 93%
    01:00 +13°C° 0 mm 0 m/S 716 mmHg 93%
    02:00 +13°C° 0 mm 0 m/S 715 mmHg 93%
    03:00 +13°C° 0 mm 0 m/S 715 mmHg 93%
    04:00 +13°C° 0 mm 0 m/S 715 mmHg 93%
    05:00 +13°C° 0 mm 0 m/S 715 mmHg 92%
    06:00 +14°C° 0 mm 0 m/S 715 mmHg 91%
    07:00 +15°C° 0 mm 0 m/S 716 mmHg 90%
    08:00 +18°C° 0 mm 1 m/S 716 mmHg 85%
    09:00 +19°C° 0 mm 1 m/S 716 mmHg 79%
    10:00 +21°C° 0 mm 1 m/S 716 mmHg 74%
    11:00 +22°C° 0.1 mm 1 m/S 716 mmHg 72%
    12:00 +21°C° 0.1 mm 2 m/S 716 mmHg 71%
    13:00 +23°C° 0.1 mm 2 m/S 716 mmHg 69%
    14:00 +23°C° 0.1 mm 2 m/S 716 mmHg 69%
    15:00 +24°C° 0.1 mm 2 m/S 716 mmHg 70%
    16:00 +24°C° 0.1 mm 2 m/S 716 mmHg 70%
    17:00 +22°C° 0.1 mm 1 m/S 716 mmHg 77%
    18:00 +21°C° 0.1 mm 1 m/S 715 mmHg 85%
    19:00 +20°C° 0.1 mm 1 m/S 715 mmHg 92%
    20:00 +19°C° 0 mm 1 m/S 716 mmHg 93%
    21:00 +18°C° 0 mm 1 m/S 716 mmHg 94%
    22:00 +15°C° 0 mm 0 m/S 716 mmHg 95%
    23:00 +15°C° 0 mm 0 m/S 716 mmHg 94%

    übermorgen, 23 August, Freitag

    Zeit Temperatur Niederschläge Wind Luftdruck Luftfeuchtigkeit
    00:00 +15°C° 0 mm 0 m/S 716 mmHg 94%
    01:00 +14°C° 0 mm 0 m/S 715 mmHg 93%
    02:00 +14°C° 0 mm 0 m/S 715 mmHg 93%
    03:00 +15°C° 0 mm 0 m/S 715 mmHg 92%
    04:00 +15°C° 0 mm 0 m/S 715 mmHg 92%
    05:00 +15°C° 0 mm 0 m/S 715 mmHg 91%
    06:00 +16°C° 0 mm 0 m/S 715 mmHg 90%
    07:00 +16°C° 0 mm 0 m/S 715 mmHg 90%
    08:00 +20°C° 0 mm 1 m/S 716 mmHg 85%
    09:00 +21°C° 0 mm 1 m/S 716 mmHg 80%
    10:00 +22°C° 0 mm 1 m/S 716 mmHg 75%
    11:00 +23°C° 0.2 mm 1 m/S 716 mmHg 74%
    12:00 +24°C° 0.2 mm 1 m/S 715 mmHg 72%
    13:00 +24°C° 0.2 mm 1 m/S 715 mmHg 70%
    14:00 +25°C° 0.5 mm 1 m/S 715 mmHg 70%
    15:00 +25°C° 0.5 mm 1 m/S 715 mmHg 70%
    16:00 +25°C° 0.5 mm 1 m/S 715 mmHg 70%
    17:00 +24°C° 0.4 mm 1 m/S 715 mmHg 77%
    18:00 +22°C° 0.4 mm 1 m/S 714 mmHg 84%
    19:00 +21°C° 0.4 mm 1 m/S 714 mmHg 91%
    20:00 +20°C° 0.1 mm 1 m/S 714 mmHg 91%
    21:00 +20°C° 0.1 mm 1 m/S 715 mmHg 92%
    22:00 +19°C° 0.1 mm 1 m/S 715 mmHg 93%
    23:00 +18°C° 0 mm 1 m/S 714 mmHg 93%

    24 August, Samstag

    Zeit Temperatur Niederschläge Wind Luftdruck Luftfeuchtigkeit
    00:00 +18°C° 0 mm 1 m/S 714 mmHg 92%
    01:00 +18°C° 0 mm 1 m/S 714 mmHg 92%
    02:00 +16°C° 0 mm 1 m/S 714 mmHg 92%
    03:00 +16°C° 0 mm 1 m/S 714 mmHg 91%
    04:00 +16°C° 0 mm 1 m/S 714 mmHg 91%
    05:00 +18°C° 0 mm 1 m/S 714 mmHg 90%
    06:00 +16°C° 0 mm 0 m/S 714 mmHg 89%
    07:00 +17°C° 0 mm 0 m/S 714 mmHg 88%
    08:00 +19°C° 0 mm 0 m/S 714 mmHg 82%
    09:00 +23°C° 0 mm 1 m/S 714 mmHg 76%
    10:00 +24°C° 0 mm 1 m/S 714 mmHg 69%
    11:00 +25°C° 0.3 mm 1 m/S 714 mmHg 67%
    12:00 +26°C° 0.3 mm 1 m/S 714 mmHg 65%
    13:00 +27°C° 0.3 mm 1 m/S 714 mmHg 63%
    14:00 +27°C° 1 mm 1 m/S 713 mmHg 64%
    15:00 +27°C° 1 mm 1 m/S 713 mmHg 66%
    16:00 +27°C° 1 mm 1 m/S 713 mmHg 68%
    17:00 +25°C° 0.5 mm 1 m/S 713 mmHg 73%
    18:00 +22°C° 0.5 mm 0 m/S 713 mmHg 79%
    19:00 +20°C° 0.5 mm 0 m/S 713 mmHg 85%
    20:00 +19°C° 0.1 mm 0 m/S 713 mmHg 87%
    21:00 +20°C° 0.1 mm 1 m/S 713 mmHg 88%
    22:00 +19°C° 0.1 mm 1 m/S 713 mmHg 89%
    23:00 +19°C° 0 mm 1 m/S 713 mmHg 89%

    25 August, Sonntag

    Zeit Temperatur Niederschläge Wind Luftdruck Luftfeuchtigkeit
    00:00 +19°C° 0 mm 1 m/S 713 mmHg 88%
    01:00 +18°C° 0 mm 1 m/S 713 mmHg 88%
    02:00 +18°C° 0 mm 1 m/S 712 mmHg 88%
    03:00 +18°C° 0 mm 1 m/S 712 mmHg 88%
    04:00 +18°C° 0 mm 1 m/S 712 mmHg 87%
    05:00 +18°C° 0 mm 1 m/S 712 mmHg 86%
    06:00 +19°C° 0 mm 1 m/S 712 mmHg 86%
    07:00 +20°C° 0 mm 1 m/S 713 mmHg 85%
    08:00 +22°C° 0 mm 1 m/S 713 mmHg 77%
    09:00 +24°C° 0 mm 1 m/S 713 mmHg 69%
    10:00 +27°C° 0 mm 1 m/S 714 mmHg 61%
    11:00 +27°C° 0.4 mm 1 m/S 713 mmHg 57%
    12:00 +28°C° 0.4 mm 1 m/S 713 mmHg 54%
    13:00 +29°C° 0.4 mm 1 m/S 713 mmHg 50%
    14:00 +29°C° 0.5 mm 1 m/S 713 mmHg 50%
    15:00 +29°C° 0.5 mm 1 m/S 713 mmHg 49%
    16:00 +28°C° 0.5 mm 1 m/S 713 mmHg 49%
    17:00 +26°C° 0.1 mm 1 m/S 712 mmHg 57%
    18:00 +24°C° 0.1 mm 1 m/S 712 mmHg 65%
    19:00 +20°C° 0.1 mm 0 m/S 712 mmHg 73%
    20:00 +21°C° 0 mm 1 m/S 712 mmHg 74%
    21:00 +20°C° 0 mm 1 m/S 713 mmHg 75%
    22:00 +19°C° 0 mm 1 m/S 713 mmHg 76%
    23:00 +19°C° 0 mm 1 m/S 713 mmHg 75%

    26 August, Montag

    Zeit Temperatur Niederschläge Wind Luftdruck Luftfeuchtigkeit
    00:00 +19°C° 0 mm 1 m/S 713 mmHg 75%
    01:00 +19°C° 0 mm 1 m/S 713 mmHg 75%
    02:00 +18°C° 0 mm 1 m/S 712 mmHg 74%
    03:00 +18°C° 0 mm 1 m/S 712 mmHg 73%
    04:00 +18°C° 0 mm 1 m/S 712 mmHg 72%
    05:00 +18°C° 0 mm 1 m/S 713 mmHg 72%
    06:00 +19°C° 0 mm 1 m/S 713 mmHg 72%
    07:00 +20°C° 0 mm 1 m/S 713 mmHg 72%
    08:00 +22°C° 0 mm 1 m/S 714 mmHg 64%
    09:00 +25°C° 0 mm 1 m/S 714 mmHg 56%
    10:00 +27°C° 0 mm 1 m/S 714 mmHg 48%
    11:00 +28°C° 0 mm 1 m/S 714 mmHg 44%
    12:00 +29°C° 0 mm 1 m/S 714 mmHg 40%
    13:00 +30°C° 0 mm 1 m/S 714 mmHg 36%
    14:00 +30°C° 0 mm 1 m/S 714 mmHg 37%
    15:00 +30°C° 0 mm 1 m/S 714 mmHg 38%
    16:00 +30°C° 0 mm 1 m/S 714 mmHg 39%
    17:00 +27°C° 0 mm 1 m/S 714 mmHg 48%
    18:00 +25°C° 0 mm 1 m/S 714 mmHg 58%
    19:00 +23°C° 0 mm 1 m/S 714 mmHg 67%
    20:00 +22°C° 0 mm 1 m/S 714 mmHg 66%
    21:00 +22°C° 0 mm 1 m/S 715 mmHg 64%
    22:00 +21°C° 0 mm 1 m/S 715 mmHg 63%
    23:00 +21°C° 0 mm 1 m/S 715 mmHg 63%
    Mehr zeigen